Regional Weather Roundup
Issued by NWS

Home | Current Version | Previous Version | Text Only | Print | Product List | Glossary Off
Versions: 1 2 3 4 5 6 7 8 9 10 11 12 13 14 15 16 17 18 19 20 21 22 23 24 25 26 27 28 29 30 31 32 33 34 35 36 37 38 39 40 41 42 43 44 45 46 47 48 49 50

000
ASUS44 KMEG 212200
RWRTN
TENNESSEE HOURLY STATE WEATHER ROUNDUP
NATIONAL WEATHER SERVICE MEMPHIS TN
400 PM CST SAT JAN 21 2017

TNZ002-004-019-021-049-052-054-088>092-212300-
WEST TENNESSEE

CITY           SKY/WX    TMP DP  RH WIND       PRES   REMARKS
MEMPHIS INTL   CLOUDY    69  52  54 S7        29.55F
NWS MEMPHIS      N/A     70 N/A N/A MISG        N/A
JACKSON        CLOUDY    69  50  50 VRB6      29.57S
DYERSBURG      CLOUDY    68  50  52 S6        29.55F
UNION CITY     SUNNY     68  46  45 CALM      29.55S
PARIS          SUNNY     64  50  59 CALM      29.58F
$$

TNZ008-025-027-028-033-062-065-066-212300-
NORTH MIDDLE TENNESSEE

CITY           SKY/WX    TMP DP  RH WIND       PRES   REMARKS
NASHVILLE      PTSUNNY   66  48  52 SE12      29.61F
CLARKSVILLE    MOSUNNY   68  47  46 S6        29.59S
SMYRNA         MOSUNNY   67  50  54 S12       29.62F
CROSSVILLE     CLEAR     59  46  62 SE3       29.67S
$$

TNZ061-075-076-078-094-096-097-212300-
SOUTH MIDDLE TENNESSEE

CITY           SKY/WX    TMP DP  RH WIND       PRES   REMARKS
TULLAHOMA      SUNNY     63  48  59 SE3       29.63F
WINCHESTER     SUNNY     64  50  59 CALM      29.63F
COLUMBIA       SUNNY     64  54  68 S5        29.59F
SHELBYVILLE    MOSUNNY   66  54  63 E6        29.63F
$$

TNZ017-018-042-046-047-212300-
NORTHEAST TENNESSEE

CITY           SKY/WX    TMP DP  RH WIND       PRES   REMARKS
TRI CITIES     CLOUDY    56  53  90 CALM      29.67S
$$

TNZ012-013-036-069-073-074-212300-
CENTRAL EAST TENNESSEE

CITY           SKY/WX    TMP DP  RH WIND       PRES   REMARKS
KNOXVILLE      MOCLDY    59  52  77 N7        29.64R
OAK RIDGE      CLOUDY    61  50  67 E5        29.66R
GATLINBURG     CLEAR     55  52  88 CALM      29.64R
$$

TNZ083-085-099-212300-
SOUTHEAST TENNESSEE

CITY           SKY/WX    TMP DP  RH WIND       PRES   REMARKS
CHATTANOOGA    PTCLDY    65  52  62 CALM      29.64S
$$

SKY/WX REPORTED AS FAIR MEANS FEW OR NO CLOUDS BELOW
12 THOUSAND FEET.




USA.gov is the U.S. government's official web portal to all federal, state and local government web resources and services.